Printer-friendly version

IAU Minor Planet Center

Minor Planet Center

MPEC 2008-N06 : 2008 MV1

The following Minor Planet Electronic Circular may be linked-to from your own Web pages, but must not otherwise be redistributed electronically.


Read MPEC 2008-N05 Read MPEC 2008-N07


M.P.E.C. 2008-N06                                Issued 2008 July 1, 17:03 UT

     The Minor Planet Electronic Circulars contain information on unusual
         minor planets and routine data on comets.  They are published
   on behalf of Commission 20 of the International Astronomical Union by the
          Minor Planet Center, Smithsonian Astrophysical Observatory,
                          Cambridge, MA 02138, U.S.A.

             Prepared using the Tamkin Foundation Computer Network

                              MPC@CFA.HARVARD.EDU
          URL http://www.cfa.harvard.edu/iau/mpc.html  ISSN 1523-6714

                                   2008 MV1

Observations:
     K08M01V* C2008 06 30.66182 22 40 14.98 -36 32 47.2          18.7 V EN006E12
     K08M01V  C2008 06 30.67692 22 39 57.67 -36 32 31.4          18.3 V EN006E12
     K08M01V  C2008 06 30.71753 22 39 11.06 -36 31 49.5          18.7 V EN006E12
     K08M01V  C2008 06 30.72415 22 39 03.57 -36 31 40.8          19.6 V EN006E12
     K08M01V  C2008 06 30.73090 22 38 55.83 -36 31 33.3          19.5 V EN006E12
     K08M01V  C2008 06 30.81667 22 37 18.44 -36 29 46.1          18.7 V EN006E12
     K08M01V  C2008 06 30.82089 22 37 13.65 -36 29 39.9          18.5 V EN006E12
     K08M01V  C2008 06 30.82302 22 37 11.31 -36 29 37.8          18.5 V EN006E12
     K08M01V  C2008 06 30.82514 22 37 08.86 -36 29 35.4          18.4 V EN006E12
     K08M01V  C2008 07 01.58997 22 24 10.14 -36 12 29.0          18.6 V EN006F85
     K08M01V  C2008 07 01.59818 22 24 01.84 -36 12 16.5          18.5 V EN006F85

Observer details:
E12 Siding Spring Survey.  Observer G. J. Garradd.  Measurers E. C. Beshore,
    A. Boattini, G. J. Garradd, A. R. Gibbs, A. D. Grauer, R. E. Hill,
    R. A. Kowalski, S. M. Larson, R. H. McNaught.  0.5-m Uppsala Schmidt + CCD.
F85 Tiki Observatory, Punaauia.  Observer N. Teamo.  Measurer J. C. Pelle.
    0.41-m f/8.0 Ritchey-Chretien + 3056x3056 CCD.

Orbital elements:
2008 MV1                                                 Earth MOID = 0.0232 AU
Epoch 2008 May 14.0 TT = JDT 2454600.5                  MPC
M   0.14479              (2000.0)            P               Q
n   0.28062862     Peri.  198.09292     -0.84625593     +0.53270861
a   2.3105466      Node    14.10529     -0.48439752     -0.76266162
e   0.6575973      Incl.    2.00135     -0.22183315     -0.36683619
P   3.51           H   22.1           G   0.15           U   8
Residuals in seconds of arc
080630 E12  0.4-  0.1-    080630 E12  0.1+  0.5+    080630 E12  0.7-  1.0-
080630 E12  0.1-  0.7+    080630 E12  0.0   0.1-    080701 F85  0.1-  0.2+
080630 E12  0.7-  0.6-    080630 E12  0.5-  0.4+    080701 F85  0.2-  0.0
080630 E12  0.3+  0.7+    080630 E12  0.1+  0.5-

Ephemeris:
2008 MV1                 a,e,i = 2.31, 0.66, 2                   q = 0.7911
Date    TT    R. A. (2000) Decl.     Delta      r     Elong.  Phase     V
2008 06 23    02 29.43   -26 19.1    0.0553   1.001    72.5   104.5    19.7
2008 06 28    23 40.67   -36 39.5    0.0699   1.046   112.9    63.6    18.7
2008 07 03    22 03.77   -35 33.8    0.101    1.092   136.2    40.1    18.9
2008 07 08    21 16.29   -33 12.8    0.139    1.140   150.2    26.3    19.3
2008 07 13    20 49.66   -31 20.0    0.181    1.188   159.9    17.1    19.7
2008 07 18    20 32.87   -29 54.2    0.226    1.237   166.9    10.7    20.0
2008 07 23    20 21.52   -28 47.1    0.273    1.286   170.9     7.2    20.4
2008 07 28    20 13.62   -27 52.5    0.324    1.336   170.3     7.3    20.8
2008 08 02    20 08.16   -27 06.4    0.378    1.385   166.6     9.8    21.3

Sonia Keys                   (C) Copyright 2008 MPC           M.P.E.C. 2008-N06

Read MPEC 2008-N05 Read MPEC 2008-N07


Our Web policy. Index to the CBAT/MPC/ICQ pages.


Valid HTML 4.01!